Weather History for Dodge City, KS

Change the Weather History Date:

Tuesday, March 26, 2013

  Actual Average Record
Temperature  
Mean Temperature 36 °F -  
Max Temperature 57 °F 61 °F 88 °F (1989)
Min Temperature 14 °F 34 °F 3 °F (1955)
Degree Days  
Heating Degree Days 30    
Moisture  
Dew Point 15 °F    
Average Humidity 48    
Maximum Humidity 80    
Minimum Humidity 14    
Precipitation  
Precipitation 0.00 in - - ()
Sea Level Pressure  
Sea Level Pressure 30.27 in    
Wind  
Wind Speed 11 mph (SSW)    
Max Wind Speed 25 mph    
Max Gust Speed 34 mph    
Visibility 10 miles    
Events      
Averages and records for this station are not official NWS values.
T = Trace of Precipitation, MM = Missing Value Source: NWS Daily Summary

Daily Weather History Graph

Daily Weather History Graph

Search for Another Location

Airport:

Trip Planner

Search our weather history database for the weather conditions in past years. The results will help you decide how hot, cold, wet, or windy it might be!

Date:

Astronomy

Mar. 26, 2013 Rise Set
Actual Time 7:33 AM CDT 7:57 PM CDT
Civil Twilight 7:07 AM CDT 8:23 PM CDT
Nautical Twilight 6:36 AM CDT 8:54 PM CDT
Astronomical Twilight 6:05 AM CDT 9:26 PM CDT
Moon 7:36 PM CDT (3/26) 6:51 AM CDT (3/26)
Length of Visible Light 13h 16m
Length of Day
12h 23m
Waxing Gibbous, 99% of the Moon is Illuminated
Mar 26
Waxing Gibbous
Mar 27
Full
Apr 2
Last Quarter
Apr 10
New
Apr 18
First Quarter

Hourly Weather History & Observations

Time (CDT) Temp. Windchill Dew Point Humidity Pressure Visibility Wind Dir Wind Speed Gust Speed Precip Events Conditions
12:52 AM 17.1 °F 7.6 °F 10.9 °F 77% 30.43 in 10.0 mi NW 6.9 mph - N/A   Clear
1:52 AM 18.0 °F 8.7 °F 10.9 °F 74% 30.42 in 10.0 mi WNW 6.9 mph - N/A   Clear
2:52 AM 15.1 °F 7.7 °F 9.0 °F 77% 30.42 in 10.0 mi SSW 4.6 mph - N/A   Clear
3:52 AM 17.1 °F 6.6 °F 10.9 °F 77% 30.40 in 10.0 mi West 8.1 mph - N/A   Clear
4:52 AM 14.0 °F 5.1 °F 9.0 °F 80% 30.39 in 10.0 mi WNW 5.8 mph - N/A   Clear
5:52 AM 15.1 °F 6.4 °F 9.0 °F 77% 30.39 in 10.0 mi WSW 5.8 mph - N/A   Clear
6:52 AM 15.1 °F 6.4 °F 8.1 °F 74% 30.40 in 10.0 mi SW 5.8 mph - N/A   Clear
7:52 AM 14.0 °F 5.1 °F 8.1 °F 77% 30.42 in 8.0 mi SW 5.8 mph - N/A   Clear
8:52 AM 21.0 °F 14.6 °F 14.0 °F 74% 30.42 in 9.0 mi WSW 4.6 mph - N/A   Clear
9:52 AM 28.0 °F 20.8 °F 18.0 °F 66% 30.40 in 10.0 mi South 6.9 mph - N/A   Clear
10:52 AM 34.0 °F 26.0 °F 16.0 °F 48% 30.38 in 10.0 mi South 10.4 mph - N/A   Clear
11:52 AM 39.9 °F 32.5 °F 15.1 °F 36% 30.34 in 10.0 mi South 12.7 mph 20.7 mph N/A   Clear
12:52 PM 44.1 °F 36.8 °F 17.1 °F 34% 30.30 in 10.0 mi South 16.1 mph 25.3 mph N/A   Clear
1:52 PM 48.0 °F - 19.0 °F 32% 30.25 in 10.0 mi South 18.4 mph 28.8 mph N/A   Clear
2:52 PM 52.0 °F - 19.0 °F 27% 30.22 in 10.0 mi South 25.3 mph 34.5 mph N/A   Clear
3:52 PM 54.0 °F - 19.0 °F 25% 30.17 in 10.0 mi South 21.9 mph 31.1 mph N/A   Clear
4:52 PM 57.0 °F - 18.0 °F 22% 30.12 in 10.0 mi South 20.7 mph 28.8 mph N/A   Clear
5:52 PM 55.9 °F - 18.0 °F 23% 30.09 in 10.0 mi South 19.6 mph 26.5 mph N/A   Clear
6:52 PM 53.1 °F - 18.0 °F 25% 30.09 in 10.0 mi SSE 23.0 mph - N/A   Clear
7:52 PM 50.0 °F - 18.0 °F 28% 30.09 in 10.0 mi SSE 16.1 mph - N/A   Clear
8:52 PM 46.9 °F - 19.0 °F 33% 30.09 in 10.0 mi SSE 20.7 mph 26.5 mph N/A   Clear
9:52 PM 43.0 °F 34.8 °F 19.0 °F 38% 30.08 in 10.0 mi SSE 18.4 mph - N/A   Clear
10:52 PM 42.1 °F 33.6 °F 19.9 °F 41% 30.08 in 10.0 mi SSE 18.4 mph 27.6 mph N/A   Clear
11:52 PM 39.9 °F 30.8 °F 19.9 °F 45% 30.07 in 10.0 mi SSE 18.4 mph - N/A   Clear